カタログに戻る

IUS DEB

LostHEO
NORAD 43360·DEBRIS·🇺🇸 United States

打ち上げ Jul 23, 1999 から Cape Canaveral Space Force Station

Loading…

次のパス (今後24時間)

TLE

古いSource: Space-Track

元期: Jul 11, 2025, 10:33 UTC

1 43360U 99040H   25192.44022629  .00000022  00000-0  00000-0 0  9990
2 43360  27.8291 124.4691 3479214 180.0234 180.0219  7.07729844333505

AllMySatでIUS DEBをリアルタイム追跡

Download on the App Store